Tracking 28125 objects as of 2-Oct-2023
HD Live streaming from Space Station
objects crossing your sky now

STARLINK-3549

Track STARLINK-3549 now!
10-day predictions
STARLINK-3549 is classified as:


NORAD ID: 51891
Int'l Code: 2022-022AR
Perigee: 545.7 km
Apogee: 547.9 km
Inclination: 53.2 °
Period: 95.4 minutes
Semi major axis: 6917 km
RCS: Unknown
Launch date: March 3, 2022
Source: United States (US)
Launch site: AIR FORCE EASTERN TEST RANGE (AFETR)
Your satellite tracking list
Your tracking list is empty




NASA's NSSDC Master Catalog

Two Line Element Set (TLE):
1 51891U 22022AR  23274.61003406  .00003772  00000-0  25485-3 0  9996
2 51891  53.2182  34.8434 0001603  78.1187 281.9985 15.08854960 88920
Source of the keplerian elements: AFSPC